When you browse on this site, cookies collect data to enhance your experience and personalize the content and advertising you see.
Visit our Privacy Policy to learn more. By continuing to use the site, you agree to this use of cookies and data.
  • In Hungary
  • List of Countries
  • For 7 days
  • Water Temperature
  • Satellite Maps
  • Weather Map
  • News
  • Weather Widgets
  • user-avatar
    Login

    Hourly Weather Sofia

    Today, 21 January, Monday

    Time Temperature Precipitation Wind Pressure Humidity
    00:00 +2°C° 0 mm 1 mps 709 mmHg 93%
    01:00 +2°C° 0 mm 1 mps 709 mmHg 93%
    02:00 +2°C° 0 mm 1 mps 709 mmHg 92%
    03:00 +2°C° 0 mm 1 mps 709 mmHg 93%
    04:00 +1°C° 0 mm 1 mps 709 mmHg 93%
    05:00 +1°C° 0 mm 1 mps 709 mmHg 93%
    06:00 +1°C° 0 mm 1 mps 709 mmHg 93%
    07:00 0°C° 0 mm 0 mps 709 mmHg 93%
    08:00 0°C° 0 mm 0 mps 709 mmHg 93%
    09:00 +1°C° 0 mm 0 mps 710 mmHg 90%
    10:00 +2°C° 0 mm 0 mps 710 mmHg 86%
    11:00 +4°C° 0 mm 1 mps 710 mmHg 83%
    12:00 +4°C° 0 mm 1 mps 710 mmHg 82%
    13:00 +5°C° 0 mm 1 mps 710 mmHg 80%
    14:00 +6°C° 0 mm 1 mps 710 mmHg 79%
    15:00 +5°C° 0 mm 1 mps 710 mmHg 82%
    16:00 +4°C° 0 mm 1 mps 710 mmHg 86%
    17:00 +3°C° 0 mm 1 mps 710 mmHg 89%
    18:00 +3°C° 0 mm 1 mps 711 mmHg 91%
    19:00 +2°C° 0 mm 1 mps 711 mmHg 92%
    20:00 +2°C° 0 mm 1 mps 711 mmHg 93%
    21:00 +2°C° 0 mm 1 mps 711 mmHg 93%
    22:00 +2°C° 0 mm 1 mps 711 mmHg 94%
    23:00 +2°C° 0 mm 1 mps 711 mmHg 94%

    Tomorrow, 22 January, Tuesday

    Time Temperature Precipitation Wind Pressure Humidity
    00:00 +2°C° 0 mm 1 mps 711 mmHg 94%
    01:00 +2°C° 0 mm 1 mps 711 mmHg 94%
    02:00 +2°C° 0 mm 1 mps 711 mmHg 94%
    03:00 +2°C° 0 mm 1 mps 711 mmHg 94%
    04:00 +2°C° 0 mm 1 mps 710 mmHg 94%
    05:00 +2°C° 0 mm 1 mps 710 mmHg 93%
    06:00 +1°C° 0.1 mm 2 mps 710 mmHg 93%
    07:00 +1°C° 0.1 mm 2 mps 710 mmHg 93%
    08:00 +1°C° 0.1 mm 2 mps 710 mmHg 92%
    09:00 +2°C° 0 mm 2 mps 710 mmHg 89%
    10:00 +3°C° 0 mm 2 mps 709 mmHg 86%
    11:00 +4°C° 0 mm 2 mps 709 mmHg 83%
    12:00 +4°C° 0.1 mm 2 mps 709 mmHg 82%
    13:00 +5°C° 0.1 mm 2 mps 708 mmHg 81%
    14:00 +5°C° 0.1 mm 2 mps 707 mmHg 81%
    15:00 +4°C° 0 mm 2 mps 707 mmHg 83%
    16:00 +4°C° 0 mm 2 mps 706 mmHg 86%
    17:00 +3°C° 0 mm 2 mps 705 mmHg 89%
    18:00 +3°C° 0 mm 2 mps 705 mmHg 90%
    19:00 +2°C° 0 mm 2 mps 704 mmHg 91%
    20:00 +1°C° 0 mm 2 mps 704 mmHg 92%
    21:00 +1°C° 0 mm 2 mps 703 mmHg 92%
    22:00 +1°C° 0 mm 2 mps 703 mmHg 92%
    23:00 +2°C° 0 mm 2 mps 702 mmHg 92%

    Day after tomorrow, 23 January, Wednesday

    Time Temperature Precipitation Wind Pressure Humidity
    00:00 +2°C° 0 mm 2 mps 702 mmHg 92%
    01:00 +2°C° 0 mm 2 mps 701 mmHg 93%
    02:00 +2°C° 0 mm 2 mps 700 mmHg 93%
    03:00 +2°C° 0 mm 2 mps 700 mmHg 93%
    04:00 +2°C° 0 mm 2 mps 699 mmHg 92%
    05:00 +2°C° 0 mm 2 mps 699 mmHg 92%
    06:00 +2°C° 0 mm 2 mps 699 mmHg 92%
    07:00 +2°C° 0 mm 2 mps 699 mmHg 91%
    08:00 +2°C° 0 mm 2 mps 699 mmHg 90%
    09:00 +3°C° 0 mm 3 mps 700 mmHg 85%
    10:00 +4°C° 0 mm 3 mps 700 mmHg 80%
    11:00 +7°C° 0 mm 3 mps 701 mmHg 75%
    12:00 +6°C° 0 mm 4 mps 701 mmHg 69%
    13:00 +7°C° 0 mm 4 mps 701 mmHg 63%
    14:00 +7°C° 0 mm 4 mps 701 mmHg 57%
    15:00 +7°C° 0 mm 3 mps 701 mmHg 61%
    16:00 +5°C° 0 mm 3 mps 700 mmHg 65%
    17:00 +5°C° 0 mm 2 mps 700 mmHg 69%
    18:00 +5°C° 0 mm 1 mps 701 mmHg 71%
    19:00 +4°C° 0 mm 1 mps 701 mmHg 73%
    20:00 +3°C° 0 mm 1 mps 701 mmHg 74%
    21:00 +3°C° 0 mm 1 mps 701 mmHg 74%
    22:00 +3°C° 0 mm 1 mps 701 mmHg 74%
    23:00 +3°C° 0 mm 1 mps 701 mmHg 74%

    24 January, Thursday

    Time Temperature Precipitation Wind Pressure Humidity
    00:00 +3°C° 0 mm 1 mps 701 mmHg 76%
    01:00 +3°C° 0 mm 1 mps 701 mmHg 77%
    02:00 +3°C° 0 mm 1 mps 700 mmHg 78%
    03:00 +3°C° 0 mm 1 mps 700 mmHg 82%
    04:00 +3°C° 0 mm 1 mps 700 mmHg 85%
    05:00 +1°C° 0 mm 2 mps 699 mmHg 88%
    06:00 +2°C° 0 mm 1 mps 699 mmHg 90%
    07:00 +2°C° 0 mm 1 mps 699 mmHg 91%
    08:00 +2°C° 0 mm 1 mps 699 mmHg 93%
    09:00 +2°C° 0.2 mm 2 mps 699 mmHg 92%
    10:00 +3°C° 0.2 mm 2 mps 700 mmHg 91%
    11:00 +3°C° 0.2 mm 2 mps 700 mmHg 89%
    12:00 +3°C° 0.9 mm 2 mps 699 mmHg 90%
    13:00 +2°C° 0.9 mm 3 mps 699 mmHg 90%
    14:00 +2°C° 0.9 mm 3 mps 698 mmHg 91%
    15:00 +2°C° 0.5 mm 3 mps 698 mmHg 91%
    16:00 +2°C° 0.5 mm 3 mps 698 mmHg 92%
    17:00 +1°C° 0.5 mm 3 mps 698 mmHg 93%
    18:00 +2°C° 0.6 mm 3 mps 698 mmHg 93%
    19:00 +2°C° 0.6 mm 3 mps 698 mmHg 94%
    20:00 +2°C° 0.6 mm 3 mps 699 mmHg 95%
    21:00 +2°C° 0.3 mm 3 mps 699 mmHg 95%
    22:00 +2°C° 0.3 mm 3 mps 699 mmHg 96%
    23:00 +2°C° 0.3 mm 3 mps 700 mmHg 96%

    25 January, Friday

    Time Temperature Precipitation Wind Pressure Humidity
    00:00 +2°C° 0.4 mm 3 mps 700 mmHg 96%
    01:00 +3°C° 0.4 mm 2 mps 700 mmHg 97%
    02:00 +3°C° 0.4 mm 2 mps 700 mmHg 97%
    03:00 +3°C° 1.1 mm 2 mps 700 mmHg 97%
    04:00 +3°C° 1.1 mm 2 mps 700 mmHg 97%
    05:00 +3°C° 1.1 mm 2 mps 700 mmHg 96%
    06:00 +2°C° 0.1 mm 2 mps 700 mmHg 96%
    07:00 +2°C° 0.1 mm 2 mps 700 mmHg 96%
    08:00 +2°C° 0.1 mm 2 mps 700 mmHg 96%
    09:00 +2°C° 0.1 mm 2 mps 700 mmHg 96%
    10:00 +2°C° 0.1 mm 3 mps 700 mmHg 95%
    11:00 +2°C° 0.1 mm 3 mps 700 mmHg 95%
    12:00 +2°C° 1.4 mm 3 mps 700 mmHg 94%
    13:00 0°C° 1.4 mm 4 mps 700 mmHg 93%
    14:00 0°C° 1.4 mm 4 mps 700 mmHg 93%
    15:00 +1°C° 0.8 mm 3 mps 700 mmHg 93%
    16:00 0°C° 0.8 mm 3 mps 700 mmHg 94%
    17:00 +1°C° 0.8 mm 2 mps 700 mmHg 94%
    18:00 +1°C° 1.3 mm 2 mps 700 mmHg 95%
    19:00 +1°C° 1.3 mm 1 mps 701 mmHg 96%
    20:00 +1°C° 1.3 mm 1 mps 701 mmHg 97%
    21:00 +1°C° 0.8 mm 1 mps 702 mmHg 96%
    22:00 +1°C° 0.8 mm 1 mps 702 mmHg 96%
    23:00 +1°C° 0.8 mm 1 mps 702 mmHg 96%

    26 January, Saturday

    Time Temperature Precipitation Wind Pressure Humidity
    00:00 0°C° 0.3 mm 1 mps 702 mmHg 96%
    01:00 0°C° 0.3 mm 1 mps 703 mmHg 96%
    02:00 0°C° 0.3 mm 1 mps 703 mmHg 96%
    03:00 0°C° 0.1 mm 1 mps 703 mmHg 96%
    04:00 0°C° 0.1 mm 1 mps 703 mmHg 96%
    05:00 0°C° 0.1 mm 1 mps 703 mmHg 95%
    06:00 0°C° 0 mm 1 mps 703 mmHg 95%
    07:00 0°C° 0 mm 1 mps 704 mmHg 95%
    08:00 -1°C° 0 mm 1 mps 704 mmHg 95%
    09:00 0°C° 0 mm 1 mps 704 mmHg 95%
    10:00 +1°C° 0 mm 1 mps 704 mmHg 94%
    11:00 +1°C° 0 mm 1 mps 705 mmHg 94%
    12:00 +1°C° 0 mm 2 mps 705 mmHg 95%
    13:00 +1°C° 0 mm 2 mps 705 mmHg 96%
    14:00 +1°C° 0 mm 2 mps 704 mmHg 97%
    15:00 +1°C° 0 mm 2 mps 704 mmHg 96%
    16:00 +1°C° 0 mm 2 mps 704 mmHg 94%
    17:00 +1°C° 0 mm 2 mps 704 mmHg 93%
    18:00 +1°C° 0 mm 1 mps 705 mmHg 94%
    19:00 +1°C° 0 mm 1 mps 705 mmHg 94%
    20:00 0°C° 0 mm 1 mps 705 mmHg 95%
    21:00 0°C° 0 mm 1 mps 705 mmHg 95%
    22:00 0°C° 0 mm 1 mps 705 mmHg 95%
    23:00 0°C° 0 mm 1 mps 705 mmHg 95%
    Show more